,,PressureMeas_1m,,PRMeasQMR101_1,,RHStat155_1m_1,,SRMeasQMS101R_1m,,TAStat155_1m_1,,GenWind_1,,GenWind_1,
2019-03-16, 07:00:06,VALID,919.297,VALID,0.0,VALID,93.95,VALID,71.04,VALID,18.076,VALID,88.0,VALID,0.0,
2019-03-16, 07:01:06,VALID,919.288,VALID,0.0,VALID,93.439,VALID,74.224,VALID,18.163,VALID,85.0,VALID,0.0,
2019-03-16, 07:02:06,VALID,919.302,VALID,0.0,VALID,93.151,VALID,76.595,VALID,18.277,VALID,91.0,VALID,0.0,
2019-03-16, 07:03:06,VALID,919.298,VALID,0.0,VALID,92.66,VALID,78.463,VALID,18.377,VALID,90.0,VALID,0.0,
2019-03-16, 07:04:06,VALID,919.3,VALID,0.0,VALID,92.073,VALID,81.136,VALID,18.471,VALID,82.0,VALID,0.0,
2019-03-16, 07:05:06,VALID,919.319,VALID,0.0,VALID,91.694,VALID,84.764,VALID,18.562,VALID,82.0,VALID,0.0,
2019-03-16, 07:06:06,VALID,919.329,VALID,0.0,VALID,91.343,VALID,88.293,VALID,18.614,VALID,87.0,VALID,0.0,
2019-03-16, 07:07:06,VALID,919.351,VALID,0.0,VALID,91.306,VALID,90.619,VALID,18.635,VALID,84.0,VALID,0.0,
2019-03-16, 07:08:06,VALID,919.367,VALID,0.0,VALID,91.259,VALID,93.336,VALID,18.663,VALID,90.0,VALID,0.0,
2019-03-16, 07:09:06,VALID,919.359,VALID,0.0,VALID,91.109,VALID,96.065,VALID,18.728,VALID,90.0,VALID,0.0,
2019-03-16, 07:10:06,VALID,919.39,VALID,0.0,VALID,90.749,VALID,98.3,VALID,18.792,VALID,95.0,VALID,0.0,
2019-03-16, 07:11:06,VALID,919.386,VALID,0.0,VALID,90.708,VALID,101.416,VALID,18.784,VALID,95.0,VALID,0.0,
2019-03-16, 07:12:06,VALID,919.398,VALID,0.0,VALID,90.895,VALID,104.422,VALID,18.767,VALID,93.0,VALID,0.0,
2019-03-16, 07:13:06,VALID,919.41,VALID,0.0,VALID,90.87,VALID,105.866,VALID,18.84,VALID,96.0,VALID,0.0,
2019-03-16, 07:14:06,VALID,919.411,VALID,0.0,VALID,90.709,VALID,108.439,VALID,18.939,VALID,97.0,VALID,0.0,
2019-03-16, 07:15:06,VALID,919.432,VALID,0.0,VALID,90.176,VALID,112.856,VALID,19.082,VALID,92.0,VALID,0.0,
2019-03-16, 07:16:06,VALID,919.444,VALID,0.0,VALID,89.516,VALID,115.465,VALID,19.192,VALID,87.0,VALID,0.0,
2019-03-16, 07:17:06,VALID,919.464,VALID,0.0,VALID,89.294,VALID,119.103,VALID,19.287,VALID,87.0,VALID,0.0,
2019-03-16, 07:18:06,VALID,919.477,VALID,0.0,VALID,89.249,VALID,124.505,VALID,19.366,VALID,85.0,VALID,0.0,
2019-03-16, 07:19:06,VALID,919.501,VALID,0.0,VALID,89.032,VALID,126.235,VALID,19.426,VALID,91.0,VALID,0.0,
2019-03-16, 07:20:06,VALID,919.516,VALID,0.0,VALID,88.945,VALID,128.603,VALID,19.455,VALID,96.0,VALID,0.0,
2019-03-16, 07:21:06,VALID,919.537,VALID,0.0,VALID,89.275,VALID,130.45,VALID,19.553,VALID,104.0,VALID,0.0,
2019-03-16, 07:22:06,VALID,919.558,VALID,0.0,VALID,88.505,VALID,134.301,VALID,19.688,VALID,100.0,VALID,0.0,
2019-03-16, 07:23:06,VALID,919.575,VALID,0.0,VALID,88.051,VALID,138.356,VALID,19.744,VALID,101.0,VALID,0.0,
2019-03-16, 07:24:06,VALID,919.592,VALID,0.0,VALID,88.313,VALID,144.51,VALID,19.799,VALID,97.0,VALID,0.0,
2019-03-16, 07:25:06,VALID,919.601,VALID,0.0,VALID,88.067,VALID,150.008,VALID,19.891,VALID,110.0,VALID,0.0,
2019-03-16, 07:26:06,VALID,919.619,VALID,0.0,VALID,86.775,VALID,152.957,VALID,19.96,VALID,119.0,VALID,0.0,
2019-03-16, 07:27:06,VALID,919.629,VALID,0.0,VALID,86.354,VALID,154.203,VALID,19.968,VALID,118.0,VALID,0.0,
2019-03-16, 07:28:06,VALID,919.618,VALID,0.0,VALID,86.211,VALID,156.227,VALID,19.951,VALID,125.0,VALID,0.0,
2019-03-16, 07:29:06,VALID,919.628,VALID,0.0,VALID,86.448,VALID,161.548,VALID,19.992,VALID,115.0,VALID,0.0,
2019-03-16, 07:30:06,VALID,919.651,VALID,0.0,VALID,86.743,VALID,165.469,VALID,20.09,VALID,141.0,VALID,0.0,
2019-03-16, 07:31:06,VALID,919.664,VALID,0.0,VALID,86.746,VALID,168.833,VALID,20.186,VALID,119.0,VALID,0.0,
2019-03-16, 07:32:06,VALID,919.698,VALID,0.0,VALID,86.262,VALID,171.599,VALID,20.29,VALID,123.0,VALID,0.0,
2019-03-16, 07:33:06,VALID,919.706,VALID,0.0,VALID,86.112,VALID,174.511,VALID,20.382,VALID,130.0,VALID,0.0,
2019-03-16, 07:34:06,VALID,919.76,VALID,0.0,VALID,84.92,VALID,176.676,VALID,20.455,VALID,128.0,VALID,0.0,
2019-03-16, 07:35:06,VALID,919.751,VALID,0.0,VALID,84.517,VALID,178.926,VALID,20.466,VALID,149.0,VALID,0.0,
2019-03-16, 07:36:06,VALID,919.756,VALID,0.0,VALID,84.212,VALID,182.842,VALID,20.464,VALID,124.0,VALID,0.0,
2019-03-16, 07:37:06,VALID,919.769,VALID,0.0,VALID,84.852,VALID,186.262,VALID,20.457,VALID,125.0,VALID,0.0,
2019-03-16, 07:38:06,VALID,919.776,VALID,0.0,VALID,84.277,VALID,189.503,VALID,20.403,VALID,126.0,VALID,0.0,
2019-03-16, 07:39:06,VALID,919.788,VALID,0.0,VALID,84.884,VALID,194.72,VALID,20.333,VALID,122.0,VALID,0.0,
2019-03-16, 07:40:06,VALID,919.789,VALID,0.0,VALID,85.225,VALID,197.412,VALID,20.296,VALID,127.0,VALID,0.0,
2019-03-16, 07:41:06,VALID,919.779,VALID,0.0,VALID,85.334,VALID,197.16,VALID,20.362,VALID,128.0,VALID,0.0,
2019-03-16, 07:42:06,VALID,919.792,VALID,0.0,VALID,84.795,VALID,198.649,VALID,20.462,VALID,126.0,VALID,0.0,
2019-03-16, 07:43:06,VALID,919.794,VALID,0.0,VALID,84.007,VALID,199.85,VALID,20.53,VALID,123.0,VALID,0.0,
2019-03-16, 07:44:06,VALID,919.809,VALID,0.0,VALID,83.871,VALID,202.278,VALID,20.538,VALID,126.0,VALID,0.0,
2019-03-16, 07:45:06,VALID,919.809,VALID,0.0,VALID,84.388,VALID,205.698,VALID,20.587,VALID,115.0,VALID,0.0,
2019-03-16, 07:46:06,VALID,919.825,VALID,0.0,VALID,84.012,VALID,203.512,VALID,20.62,VALID,106.0,VALID,0.0,
2019-03-16, 07:47:07,VALID,919.84,VALID,0.0,VALID,84.925,VALID,204.776,VALID,20.694,VALID,114.0,VALID,0.0,
2019-03-16, 07:48:07,VALID,919.842,VALID,0.0,VALID,84.045,VALID,207.219,VALID,20.752,VALID,110.0,VALID,0.0,
2019-03-16, 07:49:07,VALID,919.871,VALID,0.0,VALID,83.839,VALID,214.25,VALID,20.819,VALID,108.0,VALID,0.0,
2019-03-16, 07:50:07,VALID,919.891,VALID,0.0,VALID,83.086,VALID,226.089,VALID,20.883,VALID,111.0,VALID,0.0,
2019-03-16, 07:51:07,VALID,919.875,VALID,0.0,VALID,82.891,VALID,233.308,VALID,20.966,VALID,106.0,VALID,0.0,
2019-03-16, 07:52:07,VALID,919.886,VALID,0.0,VALID,82.191,VALID,237.249,VALID,21.04,VALID,116.0,VALID,0.0,
2019-03-16, 07:53:07,VALID,919.877,VALID,0.0,VALID,81.985,VALID,237.43,VALID,21.123,VALID,112.0,VALID,0.0,
2019-03-16, 07:54:07,VALID,919.885,VALID,0.0,VALID,81.906,VALID,244.664,VALID,21.225,VALID,106.0,VALID,0.0,
2019-03-16, 07:55:07,VALID,919.894,VALID,0.0,VALID,81.289,VALID,252.555,VALID,21.356,VALID,118.0,VALID,0.0,
2019-03-16, 07:56:07,VALID,919.925,VALID,0.0,VALID,80.745,VALID,258.018,VALID,21.435,VALID,115.0,VALID,0.0,
2019-03-16, 07:57:07,VALID,919.956,VALID,0.0,VALID,80.112,VALID,261.935,VALID,21.468,VALID,112.0,VALID,0.0,
2019-03-16, 07:58:07,VALID,919.97,VALID,0.0,VALID,80.507,VALID,264.593,VALID,21.487,VALID,121.0,VALID,0.0,
2019-03-16, 07:59:07,VALID,919.99,VALID,0.0,VALID,80.323,VALID,266.636,VALID,21.42,VALID,130.0,VALID,0.0,
2019-03-16, 08:00:07,VALID,920.015,VALID,0.0,VALID,80.039,VALID,270.851,VALID,21.435,VALID,130.0,VALID,0.0,
2019-03-16, 08:01:07,VALID,920.028,VALID,0.0,VALID,80.243,VALID,276.642,VALID,21.527,VALID,124.0,VALID,0.0,
2019-03-16, 08:02:07,VALID,920.042,VALID,0.0,VALID,79.994,VALID,279.503,VALID,21.61,VALID,133.0,VALID,0.0,
2019-03-16, 08:03:07,VALID,920.057,VALID,0.0,VALID,78.994,VALID,284.083,VALID,21.762,VALID,137.0,VALID,0.0,
2019-03-16, 08:04:07,VALID,920.089,VALID,0.0,VALID,78.639,VALID,286.411,VALID,21.762,VALID,127.0,VALID,0.0,
2019-03-16, 08:05:07,VALID,920.099,VALID,0.0,VALID,79.459,VALID,292.27,VALID,21.783,VALID,126.0,VALID,0.0,
2019-03-16, 08:06:07,VALID,920.094,VALID,0.0,VALID,80.442,VALID,295.511,VALID,21.875,VALID,110.0,VALID,0.0,
2019-03-16, 08:07:07,VALID,920.129,VALID,0.0,VALID,78.875,VALID,300.919,VALID,21.915,VALID,120.0,VALID,0.0,
2019-03-16, 08:08:07,VALID,920.13,VALID,0.0,VALID,79.895,VALID,305.162,VALID,21.911,VALID,130.0,VALID,0.0,
2019-03-16, 08:09:07,VALID,920.14,VALID,0.0,VALID,78.372,VALID,308.681,VALID,22.137,VALID,125.0,VALID,0.0,
2019-03-16, 08:10:07,VALID,920.138,VALID,0.0,VALID,77.029,VALID,309.221,VALID,22.416,VALID,138.0,VALID,0.0,
2019-03-16, 08:11:07,VALID,920.179,VALID,0.0,VALID,76.574,VALID,313.223,VALID,22.551,VALID,124.0,VALID,0.0,
2019-03-16, 08:12:07,VALID,920.176,VALID,0.0,VALID,76.315,VALID,317.277,VALID,22.571,VALID,128.0,VALID,0.0,
2019-03-16, 08:13:07,VALID,920.19,VALID,0.0,VALID,75.132,VALID,323.221,VALID,22.775,VALID,144.0,VALID,0.0,
2019-03-16, 08:14:07,VALID,920.209,VALID,0.0,VALID,75.3,VALID,327.052,VALID,22.934,VALID,118.0,VALID,0.0,
2019-03-16, 08:15:07,VALID,920.222,VALID,0.0,VALID,74.806,VALID,329.226,VALID,22.897,VALID,130.0,VALID,0.0,
2019-03-16, 08:16:07,VALID,920.236,VALID,0.0,VALID,74.264,VALID,335.087,VALID,22.949,VALID,135.0,VALID,0.0,
2019-03-16, 08:17:07,VALID,920.233,VALID,0.0,VALID,74.215,VALID,337.945,VALID,23.059,VALID,125.0,VALID,0.0,
2019-03-16, 08:18:07,VALID,920.217,VALID,0.0,VALID,74.291,VALID,341.718,VALID,23.122,VALID,132.0,VALID,0.0,
2019-03-16, 08:19:07,VALID,920.228,VALID,0.0,VALID,73.494,VALID,344.474,VALID,23.197,VALID,133.0,VALID,0.0,
2019-03-16, 08:20:07,VALID,920.207,VALID,0.0,VALID,73.585,VALID,345.399,VALID,23.257,VALID,126.0,VALID,0.0,
2019-03-16, 08:21:07,VALID,920.212,VALID,0.0,VALID,73.009,VALID,347.511,VALID,23.279,VALID,133.0,VALID,0.0,
2019-03-16, 08:22:07,VALID,920.208,VALID,0.0,VALID,73.903,VALID,355.147,VALID,23.37,VALID,125.0,VALID,0.0,
2019-03-16, 08:23:07,VALID,920.214,VALID,0.0,VALID,73.377,VALID,361.728,VALID,23.492,VALID,130.0,VALID,0.0,
2019-03-16, 08:24:07,VALID,920.204,VALID,0.0,VALID,72.675,VALID,364.408,VALID,23.425,VALID,120.0,VALID,0.0,
2019-03-16, 08:25:07,VALID,920.178,VALID,0.0,VALID,73.1,VALID,364.906,VALID,23.367,VALID,141.0,VALID,0.0,
2019-03-16, 08:26:07,VALID,920.187,VALID,0.0,VALID,73.139,VALID,365.104,VALID,23.429,VALID,153.0,VALID,0.0,
2019-03-16, 08:27:07,VALID,920.194,VALID,0.0,VALID,72.77,VALID,371.352,VALID,23.566,VALID,137.0,VALID,0.0,
2019-03-16, 08:28:07,VALID,920.199,VALID,0.0,VALID,71.98,VALID,377.439,VALID,23.616,VALID,150.0,VALID,0.0,
2019-03-16, 08:29:07,VALID,920.203,VALID,0.0,VALID,72.586,VALID,383.671,VALID,23.673,VALID,158.0,VALID,0.0,
2019-03-16, 08:30:07,VALID,920.208,VALID,0.0,VALID,72.457,VALID,385.972,VALID,23.769,VALID,128.0,VALID,0.0,
2019-03-16, 08:31:07,VALID,920.226,VALID,0.0,VALID,72.492,VALID,388.02,VALID,23.824,VALID,122.0,VALID,0.0,
2019-03-16, 08:32:07,VALID,920.24,VALID,0.0,VALID,72.659,VALID,392.616,VALID,23.872,VALID,113.0,VALID,0.0,
2019-03-16, 08:33:07,VALID,920.252,VALID,0.0,VALID,72.518,VALID,395.355,VALID,23.87,VALID,124.0,VALID,0.0,
2019-03-16, 08:34:07,VALID,920.245,VALID,0.0,VALID,72.694,VALID,400.605,VALID,23.784,VALID,121.0,VALID,0.0,
2019-03-16, 08:35:07,VALID,920.253,VALID,0.0,VALID,72.97,VALID,405.188,VALID,23.697,VALID,122.0,VALID,0.0,
2019-03-16, 08:36:07,VALID,920.274,VALID,0.0,VALID,72.869,VALID,409.51,VALID,23.638,VALID,96.0,VALID,0.0,
2019-03-16, 08:37:07,VALID,920.296,VALID,0.0,VALID,73.864,VALID,415.258,VALID,23.652,VALID,105.0,VALID,0.0,
2019-03-16, 08:38:07,VALID,920.306,VALID,0.0,VALID,73.384,VALID,420.358,VALID,23.761,VALID,92.0,VALID,0.0,
2019-03-16, 08:39:07,VALID,920.323,VALID,0.0,VALID,73.392,VALID,427.823,VALID,23.876,VALID,93.0,VALID,0.0,
2019-03-16, 08:40:07,VALID,920.343,VALID,0.0,VALID,74.773,VALID,428.041,VALID,24.181,VALID,89.0,VALID,0.0,
2019-03-16, 08:41:07,VALID,920.379,VALID,0.0,VALID,71.246,VALID,430.612,VALID,24.33,VALID,98.0,VALID,0.0,
2019-03-16, 08:42:07,VALID,920.362,VALID,0.0,VALID,70.878,VALID,434.237,VALID,24.094,VALID,77.0,VALID,0.0,
2019-03-16, 08:43:07,VALID,920.377,VALID,0.0,VALID,70.06,VALID,437.664,VALID,23.899,VALID,106.0,VALID,0.0,
2019-03-16, 08:44:07,VALID,920.376,VALID,0.0,VALID,69.916,VALID,445.05,VALID,23.897,VALID,110.0,VALID,0.0,
2019-03-16, 08:45:07,VALID,920.363,VALID,0.0,VALID,71.288,VALID,450.537,VALID,23.904,VALID,77.0,VALID,0.0,
2019-03-16, 08:46:07,VALID,920.362,VALID,0.0,VALID,71.792,VALID,452.687,VALID,23.908,VALID,112.0,VALID,0.0,
2019-03-16, 08:47:07,VALID,920.351,VALID,0.0,VALID,71.463,VALID,456.167,VALID,23.971,VALID,110.0,VALID,0.0,
2019-03-16, 08:48:07,VALID,920.36,VALID,0.0,VALID,71.893,VALID,457.987,VALID,24.213,VALID,104.0,VALID,0.0,
2019-03-16, 08:49:07,VALID,920.346,VALID,0.0,VALID,70.973,VALID,462.106,VALID,24.32,VALID,82.0,VALID,0.0,
2019-03-16, 08:50:07,VALID,920.337,VALID,0.0,VALID,71.921,VALID,468.866,VALID,24.27,VALID,79.0,VALID,0.0,
2019-03-16, 08:51:07,VALID,920.344,VALID,0.0,VALID,70.849,VALID,474.891,VALID,24.22,VALID,100.0,VALID,0.0,
2019-03-16, 08:52:07,VALID,920.319,VALID,0.0,VALID,69.744,VALID,479.605,VALID,24.267,VALID,88.0,VALID,1.589,
2019-03-16, 08:53:07,VALID,920.313,VALID,0.0,VALID,70.383,VALID,481.873,VALID,24.146,VALID,87.0,VALID,2.096,
2019-03-16, 08:54:07,VALID,920.302,VALID,0.0,VALID,72.136,VALID,487.636,VALID,24.238,VALID,122.0,VALID,1.353,
2019-03-16, 08:55:07,VALID,920.311,VALID,0.0,VALID,70.417,VALID,492.174,VALID,24.453,VALID,122.0,VALID,2.586,
2019-03-16, 08:56:07,VALID,920.307,VALID,0.0,VALID,68.882,VALID,492.981,VALID,24.406,VALID,123.0,VALID,1.811,
2019-03-16, 08:57:07,VALID,920.307,VALID,0.0,VALID,70.284,VALID,495.162,VALID,24.478,VALID,147.0,VALID,1.0,
2019-03-16, 08:58:07,VALID,920.3,VALID,0.0,VALID,69.832,VALID,497.734,VALID,24.678,VALID,120.0,VALID,0.683,
2019-03-16, 08:59:07,VALID,920.306,VALID,0.0,VALID,70.3,VALID,502.973,VALID,24.85,VALID,140.0,VALID,0.423,
2019-03-16, 09:00:07,VALID,920.317,VALID,0.0,VALID,66.341,VALID,508.609,VALID,25.171,VALID,137.0,VALID,0.629,
2019-03-16, 09:01:07,VALID,920.328,VALID,0.0,VALID,66.553,VALID,512.991,VALID,25.318,VALID,111.0,VALID,0.0,
2019-03-16, 09:02:07,VALID,920.33,VALID,0.0,VALID,67.007,VALID,510.739,VALID,25.268,VALID,85.0,VALID,0.0,
2019-03-16, 09:03:07,VALID,920.345,VALID,0.0,VALID,68.523,VALID,522.799,VALID,25.312,VALID,111.0,VALID,0.0,
2019-03-16, 09:04:07,VALID,920.342,VALID,0.0,VALID,68.781,VALID,526.723,VALID,25.307,VALID,81.0,VALID,0.0,
2019-03-16, 09:05:07,VALID,920.341,VALID,0.0,VALID,69.86,VALID,524.702,VALID,25.311,VALID,72.0,VALID,0.0,
2019-03-16, 09:06:07,VALID,920.327,VALID,0.0,VALID,67.027,VALID,525.016,VALID,25.461,VALID,135.0,VALID,0.0,
2019-03-16, 09:07:07,VALID,920.315,VALID,0.0,VALID,65.721,VALID,534.303,VALID,25.644,VALID,115.0,VALID,0.0,
2019-03-16, 09:08:07,VALID,920.323,VALID,0.0,VALID,68.019,VALID,539.905,VALID,25.635,VALID,65.0,VALID,0.0,
2019-03-16, 09:09:07,VALID,920.326,VALID,0.0,VALID,65.846,VALID,543.913,VALID,25.398,VALID,100.0,VALID,0.0,
2019-03-16, 09:10:07,VALID,920.317,VALID,0.0,VALID,66.904,VALID,549.85,VALID,25.216,VALID,74.0,VALID,0.0,
2019-03-16, 09:11:07,VALID,920.326,VALID,0.0,VALID,67.305,VALID,551.374,VALID,25.022,VALID,97.0,VALID,0.0,
2019-03-16, 09:12:07,VALID,920.32,VALID,0.0,VALID,65.791,VALID,551.404,VALID,24.92,VALID,103.0,VALID,0.0,
2019-03-16, 09:13:07,VALID,920.335,VALID,0.0,VALID,68.75,VALID,558.706,VALID,24.933,VALID,89.0,VALID,0.0,
2019-03-16, 09:14:07,VALID,920.349,VALID,0.0,VALID,68.117,VALID,563.166,VALID,25.163,VALID,112.0,VALID,0.0,
2019-03-16, 09:15:07,VALID,920.333,VALID,0.0,VALID,67.685,VALID,568.032,VALID,25.129,VALID,82.0,VALID,0.0,
2019-03-16, 09:16:07,VALID,920.328,VALID,0.0,VALID,68.965,VALID,571.37,VALID,25.153,VALID,99.0,VALID,0.0,
2019-03-16, 09:17:07,VALID,920.332,VALID,0.0,VALID,66.681,VALID,576.355,VALID,25.118,VALID,77.0,VALID,0.0,
2019-03-16, 09:18:07,VALID,920.354,VALID,0.0,VALID,68.041,VALID,580.736,VALID,24.865,VALID,87.0,VALID,0.0,
2019-03-16, 09:19:07,VALID,920.359,VALID,0.0,VALID,67.294,VALID,581.125,VALID,24.915,VALID,91.0,VALID,0.0,
2019-03-16, 09:20:07,VALID,920.35,VALID,0.0,VALID,68.155,VALID,581.141,VALID,25.17,VALID,127.0,VALID,0.0,
2019-03-16, 09:21:07,VALID,920.33,VALID,0.0,VALID,65.883,VALID,582.883,VALID,25.437,VALID,142.0,VALID,0.0,
2019-03-16, 09:22:07,VALID,920.344,VALID,0.0,VALID,65.49,VALID,588.958,VALID,25.669,VALID,124.0,VALID,0.0,
2019-03-16, 09:23:07,VALID,920.358,VALID,0.0,VALID,66.08,VALID,593.152,VALID,25.713,VALID,93.0,VALID,0.0,
2019-03-16, 09:24:07,VALID,920.355,VALID,0.0,VALID,66.944,VALID,598.988,VALID,25.578,VALID,134.0,VALID,0.0,
2019-03-16, 09:25:07,VALID,920.346,VALID,0.0,VALID,64.694,VALID,602.019,VALID,25.612,VALID,120.0,VALID,0.0,
2019-03-16, 09:26:07,VALID,920.343,VALID,0.0,VALID,65.935,VALID,601.162,VALID,25.276,VALID,69.0,VALID,0.0,
2019-03-16, 09:27:07,VALID,920.355,VALID,0.0,VALID,65.908,VALID,604.191,VALID,25.012,VALID,116.0,VALID,0.0,
2019-03-16, 09:28:07,VALID,920.365,VALID,0.0,VALID,66.728,VALID,607.988,VALID,25.176,VALID,109.0,VALID,0.0,
2019-03-16, 09:29:07,VALID,920.364,VALID,0.0,VALID,66.485,VALID,612.683,VALID,25.431,VALID,122.0,VALID,0.0,
2019-03-16, 09:30:07,VALID,920.379,VALID,0.0,VALID,65.465,VALID,617.919,VALID,25.497,VALID,116.0,VALID,0.0,
2019-03-16, 09:31:07,VALID,920.382,VALID,0.0,VALID,65.282,VALID,620.635,VALID,25.532,VALID,97.0,VALID,0.0,
2019-03-16, 09:32:07,VALID,920.391,VALID,0.0,VALID,65.097,VALID,616.706,VALID,25.831,VALID,101.0,VALID,0.0,
2019-03-16, 09:33:07,VALID,920.409,VALID,0.0,VALID,63.925,VALID,619.766,VALID,25.806,VALID,126.0,VALID,0.0,
2019-03-16, 09:34:07,VALID,920.417,VALID,0.0,VALID,63.761,VALID,630.78,VALID,25.906,VALID,103.0,VALID,0.0,
2019-03-16, 09:35:07,VALID,920.406,VALID,0.0,VALID,63.046,VALID,633.655,VALID,26.017,VALID,115.0,VALID,0.0,
2019-03-16, 09:36:07,VALID,920.405,VALID,0.0,VALID,62.348,VALID,636.657,VALID,26.012,VALID,56.0,VALID,0.0,
2019-03-16, 09:37:07,VALID,920.39,VALID,0.0,VALID,64.848,VALID,639.872,VALID,25.763,VALID,21.0,VALID,0.789,
2019-03-16, 09:38:07,VALID,920.391,VALID,0.0,VALID,64.612,VALID,642.734,VALID,25.796,VALID,30.0,VALID,0.865,
2019-03-16, 09:39:07,VALID,920.379,VALID,0.0,VALID,63.934,VALID,651.863,VALID,26.007,VALID,150.0,VALID,1.444,
2019-03-16, 09:40:07,VALID,920.368,VALID,0.0,VALID,62.302,VALID,650.013,VALID,25.925,VALID,100.0,VALID,0.225,
2019-03-16, 09:41:07,VALID,920.347,VALID,0.0,VALID,63.393,VALID,653.407,VALID,25.71,VALID,77.0,VALID,0.0,
2019-03-16, 09:42:07,VALID,920.35,VALID,0.0,VALID,63.878,VALID,655.222,VALID,25.568,VALID,66.0,VALID,0.0,
2019-03-16, 09:43:07,VALID,920.352,VALID,0.0,VALID,63.546,VALID,656.235,VALID,25.573,VALID,115.0,VALID,0.0,
2019-03-16, 09:44:07,VALID,920.328,VALID,0.0,VALID,64.517,VALID,662.857,VALID,25.669,VALID,90.0,VALID,0.0,
2019-03-16, 09:45:07,VALID,920.328,VALID,0.0,VALID,65.748,VALID,668.78,VALID,25.937,VALID,101.0,VALID,0.0,
2019-03-16, 09:46:07,VALID,920.306,VALID,0.0,VALID,62.977,VALID,670.702,VALID,26.022,VALID,88.0,VALID,0.0,
2019-03-16, 09:47:07,VALID,920.306,VALID,0.0,VALID,63.32,VALID,675.641,VALID,26.162,VALID,12.0,VALID,0.0,
2019-03-16, 09:48:07,VALID,920.307,VALID,0.0,VALID,62.384,VALID,675.513,VALID,26.471,VALID,77.0,VALID,0.0,
2019-03-16, 09:49:07,VALID,920.304,VALID,0.0,VALID,60.549,VALID,671.052,VALID,26.655,INVALID,360.0,VALID,0.0,
2019-03-16, 09:50:07,VALID,920.314,VALID,0.0,VALID,62.17,VALID,676.335,VALID,26.517,VALID,43.0,VALID,0.0,
2019-03-16, 09:51:07,VALID,920.304,VALID,0.0,VALID,61.395,VALID,680.561,VALID,26.467,VALID,125.0,VALID,0.0,
2019-03-16, 09:52:07,VALID,920.286,VALID,0.0,VALID,60.518,VALID,682.052,VALID,26.599,VALID,129.0,VALID,0.0,
2019-03-16, 09:53:07,VALID,920.292,VALID,0.0,VALID,61.148,VALID,676.668,VALID,26.569,VALID,91.0,VALID,0.0,
2019-03-16, 09:54:06,VALID,920.264,VALID,0.0,VALID,61.609,VALID,689.646,VALID,26.196,INVALID,360.0,VALID,0.0,
2019-03-16, 09:55:06,VALID,920.254,VALID,0.0,VALID,62.598,VALID,700.105,VALID,26.18,INVALID,360.0,VALID,0.0,
2019-03-16, 09:56:06,VALID,920.238,VALID,0.0,VALID,61.534,VALID,701.914,VALID,25.774,INVALID,360.0,VALID,0.0,
2019-03-16, 09:57:06,VALID,920.211,VALID,0.0,VALID,62.452,VALID,696.533,VALID,25.533,INVALID,360.0,VALID,0.0,
2019-03-16, 09:58:06,VALID,920.187,VALID,0.0,VALID,63.47,VALID,693.661,VALID,25.713,INVALID,360.0,VALID,0.0,
2019-03-16, 09:59:06,VALID,920.187,VALID,0.0,VALID,62.382,VALID,714.238,VALID,25.692,INVALID,360.0,VALID,0.0,
2019-03-16, 10:00:06,VALID,920.177,VALID,0.0,VALID,61.969,VALID,715.97,VALID,25.811,INVALID,360.0,VALID,0.0,
2019-03-16, 10:01:06,VALID,920.176,VALID,0.0,VALID,61.797,VALID,721.426,VALID,25.949,INVALID,360.0,VALID,0.0,
2019-03-16, 10:02:06,VALID,920.165,VALID,0.0,VALID,62.275,VALID,725.236,VALID,25.887,INVALID,360.0,VALID,0.0,
2019-03-16, 10:03:06,VALID,920.146,VALID,0.0,VALID,64.857,VALID,725.587,VALID,25.877,INVALID,360.0,VALID,0.0,
2019-03-16, 10:04:06,VALID,920.14,VALID,0.0,VALID,62.641,VALID,726.005,VALID,26.191,INVALID,360.0,VALID,0.0,
2019-03-16, 10:05:06,VALID,920.148,VALID,0.0,VALID,61.514,VALID,732.46,VALID,26.443,INVALID,360.0,VALID,0.0,
2019-03-16, 10:06:06,VALID,920.137,VALID,0.0,VALID,61.966,VALID,733.338,VALID,26.401,INVALID,360.0,VALID,0.0,
2019-03-16, 10:07:06,VALID,920.142,VALID,0.0,VALID,62.357,VALID,735.373,VALID,26.245,INVALID,360.0,VALID,0.0,
2019-03-16, 10:08:06,VALID,920.139,VALID,0.0,VALID,62.022,VALID,745.63,VALID,26.327,INVALID,360.0,VALID,0.0,
2019-03-16, 10:09:06,VALID,920.144,VALID,0.0,VALID,62.167,VALID,745.398,VALID,26.357,INVALID,360.0,VALID,0.0,
2019-03-16, 10:10:06,VALID,920.15,VALID,0.0,VALID,59.695,VALID,741.641,VALID,26.313,INVALID,360.0,VALID,0.0,
2019-03-16, 10:11:06,VALID,920.146,VALID,0.0,VALID,60.708,VALID,739.025,VALID,26.109,INVALID,360.0,VALID,0.0,
2019-03-16, 10:12:06,VALID,920.157,VALID,0.0,VALID,60.102,VALID,743.965,VALID,26.33,INVALID,360.0,VALID,0.0,
2019-03-16, 10:13:06,VALID,920.166,VALID,0.0,VALID,59.787,VALID,753.451,VALID,26.467,INVALID,360.0,VALID,0.0,
2019-03-16, 10:14:06,VALID,920.185,VALID,0.0,VALID,58.715,VALID,754.177,VALID,26.728,INVALID,360.0,VALID,0.0,
2019-03-16, 10:15:06,VALID,920.173,VALID,0.0,VALID,57.569,VALID,761.102,VALID,26.814,INVALID,360.0,VALID,0.0,
2019-03-16, 10:16:06,VALID,920.166,VALID,0.0,VALID,58.601,VALID,763.117,VALID,27.095,INVALID,360.0,VALID,0.0,
2019-03-16, 10:17:06,VALID,920.163,VALID,0.0,VALID,58.219,VALID,764.115,VALID,27.151,INVALID,360.0,VALID,0.0,
2019-03-16, 10:18:06,VALID,920.162,VALID,0.0,VALID,58.358,VALID,763.959,VALID,27.277,INVALID,360.0,VALID,0.0,
2019-03-16, 10:19:06,VALID,920.15,VALID,0.0,VALID,58.842,VALID,765.905,VALID,27.447,INVALID,360.0,VALID,0.0,
2019-03-16, 10:20:06,VALID,920.135,VALID,0.0,VALID,56.088,VALID,765.94,VALID,27.575,INVALID,360.0,VALID,0.0,
2019-03-16, 10:21:06,VALID,920.121,VALID,0.0,VALID,56.874,VALID,772.087,VALID,27.533,INVALID,360.0,VALID,0.0,
2019-03-16, 10:22:06,VALID,920.094,VALID,0.0,VALID,57.855,VALID,777.076,VALID,27.572,INVALID,360.0,VALID,0.0,
2019-03-16, 10:23:06,VALID,920.105,VALID,0.0,VALID,59.664,VALID,772.012,VALID,27.637,INVALID,360.0,VALID,0.0,
2019-03-16, 10:24:06,VALID,920.063,VALID,0.0,VALID,54.808,VALID,774.438,VALID,27.183,INVALID,360.0,VALID,0.0,
2019-03-16, 10:25:06,VALID,920.052,VALID,0.0,VALID,55.851,VALID,784.95,VALID,26.839,INVALID,360.0,VALID,0.0,
2019-03-16, 10:26:06,VALID,920.056,VALID,0.0,VALID,57.269,VALID,797.268,VALID,27.147,INVALID,360.0,VALID,0.0,
2019-03-16, 10:27:06,VALID,920.04,VALID,0.0,VALID,58.292,VALID,797.858,VALID,27.219,INVALID,360.0,VALID,0.0,
2019-03-16, 10:28:06,VALID,920.034,VALID,0.0,VALID,58.832,VALID,796.901,VALID,27.331,INVALID,360.0,VALID,0.0,
2019-03-16, 10:29:06,VALID,920.001,VALID,0.0,VALID,56.735,VALID,800.704,VALID,27.535,INVALID,360.0,VALID,0.0,
2019-03-16, 10:30:06,VALID,919.96,VALID,0.0,VALID,54.554,VALID,799.708,VALID,27.911,INVALID,360.0,VALID,0.0,
2019-03-16, 10:31:06,VALID,919.935,VALID,0.0,VALID,53.23,VALID,803.641,VALID,28.231,INVALID,360.0,VALID,0.0,
2019-03-16, 10:32:06,VALID,919.926,VALID,0.0,VALID,54.243,VALID,805.143,VALID,28.315,INVALID,360.0,VALID,0.0,
2019-03-16, 10:33:06,VALID,919.89,VALID,0.0,VALID,53.004,VALID,798.156,VALID,28.238,INVALID,360.0,VALID,0.0,
2019-03-16, 10:34:06,VALID,919.891,VALID,0.0,VALID,54.182,VALID,805.613,VALID,28.412,INVALID,360.0,VALID,0.0,
2019-03-16, 10:35:06,VALID,919.889,VALID,0.0,VALID,53.347,VALID,809.181,VALID,28.517,INVALID,360.0,VALID,0.0,
2019-03-16, 10:36:06,VALID,919.874,VALID,0.0,VALID,54.315,VALID,812.016,VALID,28.541,INVALID,360.0,VALID,0.0,
2019-03-16, 10:37:06,VALID,919.859,VALID,0.0,VALID,52.513,VALID,819.675,VALID,28.337,INVALID,360.0,VALID,0.0,
2019-03-16, 10:38:06,VALID,919.867,VALID,0.0,VALID,52.754,VALID,820.387,VALID,28.232,INVALID,360.0,VALID,0.0,